TimeCDT,TemperatureF,Dew PointF,Humidity,Sea Level PressureIn,VisibilityMPH,Wind Direction,Wind SpeedMPH,Gust SpeedMPH,PrecipitationIn,Events,Conditions,WindDirDegrees,DateUTC
12:54 AM,21.0,9.0,60,30.11,10.0,NW,16.1,25.3,N/A,,Partly Cloudy,310,2013-03-20 05:54:00
1:54 AM,19.0,8.1,62,30.12,10.0,WNW,13.8,24.2,N/A,,Clear,290,2013-03-20 06:54:00
2:54 AM,16.0,5.0,62,30.13,10.0,WNW,15.0,-,N/A,,Clear,300,2013-03-20 07:54:00
3:54 AM,14.0,3.9,64,30.13,10.0,NW,12.7,21.9,N/A,,Clear,310,2013-03-20 08:54:00
4:54 AM,12.9,3.0,65,30.14,10.0,WNW,16.1,21.9,N/A,,Clear,300,2013-03-20 09:54:00
5:54 AM,10.9,1.9,67,30.15,9.0,WNW,12.7,-,N/A,,Clear,300,2013-03-20 10:54:00
6:54 AM,10.9,1.0,64,30.16,10.0,WNW,13.8,-,N/A,,Clear,290,2013-03-20 11:54:00
7:54 AM,10.9,1.0,64,30.17,10.0,WNW,11.5,-,N/A,,Clear,300,2013-03-20 12:54:00
8:54 AM,12.0,1.0,61,30.17,10.0,WNW,17.3,-,N/A,,Clear,300,2013-03-20 13:54:00
9:54 AM,14.0,1.0,56,30.17,10.0,NW,17.3,-,N/A,,Clear,310,2013-03-20 14:54:00
10:54 AM,16.0,3.0,57,30.16,10.0,WNW,21.9,27.6,N/A,,Clear,300,2013-03-20 15:54:00
11:54 AM,17.1,3.9,56,30.16,10.0,WNW,18.4,25.3,N/A,,Partly Cloudy,290,2013-03-20 16:54:00
12:54 PM,19.9,6.1,55,30.14,10.0,WNW,16.1,26.5,N/A,,Partly Cloudy,300,2013-03-20 17:54:00
1:54 PM,21.0,8.1,57,30.12,10.0,West,17.3,24.2,N/A,,Scattered Clouds,280,2013-03-20 18:54:00
2:54 PM,21.9,8.1,55,30.10,10.0,WNW,19.6,25.3,N/A,,Scattered Clouds,300,2013-03-20 19:54:00
3:54 PM,23.0,8.1,53,30.10,10.0,WNW,17.3,27.6,N/A,,Scattered Clouds,300,2013-03-20 20:54:00
4:54 PM,23.0,8.1,53,30.09,10.0,NW,19.6,25.3,N/A,,Partly Cloudy,310,2013-03-20 21:54:00
5:54 PM,21.0,8.1,57,30.10,10.0,WNW,17.3,24.2,N/A,,Scattered Clouds,300,2013-03-20 22:54:00
6:54 PM,19.9,7.0,57,30.11,10.0,WNW,18.4,-,N/A,,Scattered Clouds,290,2013-03-20 23:54:00
7:54 PM,19.0,7.0,59,30.11,10.0,WNW,11.5,-,N/A,,Scattered Clouds,290,2013-03-21 00:54:00
8:54 PM,18.0,8.1,65,30.11,10.0,WNW,11.5,-,N/A,,Scattered Clouds,300,2013-03-21 01:54:00
9:54 PM,18.0,8.1,65,30.12,10.0,NW,9.2,-,0.00,Snow,Light Snow,320,2013-03-21 02:54:00
10:54 PM,16.0,8.1,71,30.12,10.0,NW,9.2,-,0.00,,Partly Cloudy,310,2013-03-21 03:54:00
11:54 PM,15.1,7.0,70,30.12,10.0,NW,8.1,-,N/A,,Partly Cloudy,310,2013-03-21 04:54:00